Wind_Speed
61 61 61 60 60 60 60 59 58 58 58 58 58 58 58 57 57 57 56 56 56 56 56 56 56 56 56 56 55 55 54 54 54 54 55 56 56 55 54 54 53 52 52 53 55 57 58 59 59 59 59 59 59 59 59 59 59 59 59 58 57 56 55 54 54 54 54 54 54 53 52 51 51 50 50 51 51 51 50 46 42 38 36 34 33 31
60 61 61 60 60 61 61 61 60 59 58 58 58 58 58 58 58 57 56 56 56 56 57 57 57 57 57 56 56 56 55 54 53 53 54 55 55 55 56 55 55 53 52 52 53 55 56 58 59 59 59 58 58 59 61 61 61 60 59 59 58 57 56 56 55 55 55 55 55 54 53 52 52 52 53 53 52 51 49 46 42 39 37 36 35 33
59 59 60 59 60 61 62 61 61 61 60 60 59 59 58 58 58 58 57 56 56 56 56 56 57 57 57 57 57 56 56 55 54 53 53 53 54 54 55 56 56 55 53 52 52 52 54 57 59 59 58 54 53 55 60 62 62 61 60 59 59 58 58 57 57 56 56 56 55 55 54 54 54 54 55 54 52 50 48 44 41 39 38 37 36 35
59 59 59 59 59 59 60 60 60 61 61 61 61 61 60 60 59 59 59 57 56 56 56 56 56 56 56 56 56 56 56 56 55 54 54 53 53 53 54 56 57 57 56 54 52 52 52 55 59 60 58 51 48 51 57 62 63 62 60 60 60 59 59 59 58 57 57 56 56 56 55 55 56 56 56 55 53 50 46 42 39 38 38 37 37 36
61 60 60 60 60 59 59 59 59 59 59 60 61 61 61 61 61 61 60 59 58 57 56 55 55 55 56 56 56 56 56 56 56 55 55 54 54 54 53 55 57 58 58 56 54 52 52 55 59 62 60 52 47 48 54 60 63 63 62 61 60 60 60 60 60 59 58 57 57 56 56 57 57 58 58 57 54 50 45 41 39 38 39 39 38 37
63 62 62 62 61 61 60 59 59 58 58 59 59 59 59 60 61 61 61 61 60 59 57 56 55 55 55 55 55 55 56 56 56 56 56 55 55 55 54 54 56 58 59 58 56 54 54 56 60 63 62 55 48 46 51 57 62 64 63 62 61 60 61 62 62 61 59 58 58 58 58 58 59 60 60 58 56 51 46 41 39 39 40 40 39 38
65 64 64 63 63 63 62 61 60 59 59 59 58 58 58 58 59 59 60 60 61 60 60 58 57 55 54 54 54 55 55 55 56 56 56 56 56 56 56 55 55 56 59 60 59 57 55 57 60 62 62 57 50 46 47 53 59 63 64 63 62 61 61 63 63 63 61 59 58 59 59 60 61 62 62 60 57 53 48 43 41 41 42 41 40 39
67 66 65 64 64 64 64 63 62 61 60 60 59 59 58 58 57 57 58 59 59 60 61 61 60 58 56 55 54 54 54 55 55 55 55 56 57 57 57 57 56 56 57 60 61 60 58 57 59 61 61 58 53 48 47 50 56 62 65 65 64 63 62 63 64 64 63 61 60 59 60 61 62 63 63 62 59 55 50 46 43 43 44 43 41 40
66 66 66 65 65 65 65 64 63 62 61 61 61 61 60 59 58 57 57 57 58 59 60 61 62 61 60 58 56 55 54 54 54 55 55 55 56 57 58 58 57 56 57 59 61 62 61 59 59 60 60 59 55 52 49 49 53 59 64 66 66 65 64 63 64 65 64 62 61 60 60 61 62 64 64 63 60 56 52 48 45 45 45 45 43 41
65 65 66 65 65 65 65 65 64 62 61 62 62 62 61 60 60 59 58 57 57 57 58 60 61 62 62 61 59 58 56 55 54 54 54 54 55 56 58 59 59 58 57 58 60 63 63 62 61 61 60 59 57 55 52 51 53 57 63 67 68 67 65 63 63 64 64 63 61 61 61 60 60 62 63 63 60 56 52 49 47 46 47 47 45 43
64 64 64 65 65 65 64 64 64 63 62 62 62 62 62 61 60 60 60 59 57 56 56 57 59 60 61 62 62 61 59 58 56 54 54 53 54 55 56 58 60 60 58 58 59 61 64 64 64 62 61 60 59 58 56 54 54 57 63 67 69 69 67 64 62 62 62 62 62 62 62 60 60 61 63 62 59 55 52 50 48 47 48 48 47 45
63 63 63 64 64 64 64 64 63 63 62 62 62 62 62 61 60 60 61 60 59 57 56 56 57 58 59 60 61 61 61 61 59 57 55 54 53 53 55 57 59 60 60 59 59 60 63 65 66 64 63 61 60 59 59 57 56 58 62 67 69 70 67 65 62 61 60 61 62 63 63 62 62 63 63 60 56 53 51 49 49 48 48 49 48 46
62 62 62 63 63 63 63 63 62 62 62 61 62 62 61 61 60 60 61 61 60 59 57 57 57 57 57 58 59 59 61 62 62 60 58 56 54 53 53 55 58 60 61 60 59 60 61 64 66 66 65 63 62 61 61 59 57 57 60 64 67 68 67 65 63 61 60 60 63 66 67 65 64 62 60 57 53 51 50 50 49 49 49 49 49 47
61 61 61 61 62 62 62 61 61 61 61 61 61 61 61 60 60 60 61 61 61 60 58 58 58 57 56 56 56 57 58 60 61 62 61 59 56 54 53 54 56 59 61 61 61 60 60 62 65 67 66 65 64 63 62 60 58 57 58 62 65 67 67 65 63 61 60 62 64 66 66 63 61 59 57 53 51 50 50 50 49 49 50 50 50 48
60 60 61 61 61 61 61 60 60 60 60 60 59 59 60 60 60 60 60 61 61 60 59 59 59 58 57 56 55 55 55 57 58 60 62 61 59 56 53 53 55 58 60 61 62 61 59 60 62 65 67 66 66 65 64 62 59 57 57 59 63 66 67 66 63 60 60 63 66 66 64 60 58 56 54 51 50 51 51 50 50 50 50 51 51 49
60 60 61 61 61 61 60 60 60 60 60 59 59 58 59 59 59 59 60 60 60 60 60 60 60 59 58 56 55 54 54 54 56 58 60 61 61 58 55 53 54 56 58 61 62 61 60 59 60 63 65 67 67 67 65 63 60 57 56 57 61 65 67 66 63 61 62 65 67 66 62 58 56 54 52 51 51 51 51 51 51 51 51 52 51 50
61 61 61 61 61 61 60 59 59 59 59 59 58 58 58 58 58 59 59 59 60 60 60 60 60 59 59 57 55 54 53 53 54 55 58 60 61 59 56 54 54 55 57 59 61 61 61 60 59 61 63 66 67 68 67 65 62 59 56 56 60 64 67 67 64 62 63 67 67 65 61 57 55 53 52 51 51 52 52 52 52 52 52 52 52 51
60 60 60 61 61 61 60 59 59 59 59 58 58 58 58 58 58 58 58 59 59 59 60 60 60 60 59 58 56 54 52 52 52 53 55 58 60 60 58 56 54 54 55 58 60 61 61 60 59 59 61 64 67 68 68 67 65 62 59 57 59 62 65 66 65 64 65 68 68 65 61 57 55 53 51 51 52 53 53 52 52 52 52 53 53 52
59 59 59 59 60 60 59 59 59 58 58 58 58 58 58 58 57 57 58 58 58 59 59 59 60 60 59 58 57 54 52 51 50 50 52 55 58 60 59 57 55 54 54 56 59 60 60 60 59 59 60 62 65 67 68 68 67 65 62 59 59 61 63 64 64 65 67 68 67 64 61 58 55 53 51 52 53 53 53 52 52 52 52 53 53 52
58 58 58 58 58 58 58 58 58 57 57 57 57 57 58 57 57 57 57 57 58 58 59 59 60 60 60 59 57 55 53 51 49 48 50 53 56 58 59 58 56 54 54 55 57 59 59 60 59 59 59 61 64 66 67 68 68 67 65 62 60 60 61 62 64 66 68 68 67 65 63 59 56 53 52 53 53 53 52 52 52 52 52 53 53 53
57 57 56 55 55 56 57 57 56 56 55 55 56 56 57 57 57 57 57 57 57 58 59 59 60 60 60 59 57 55 53 52 50 49 50 52 54 57 58 57 55 53 52 53 55 56 58 58 58 58 59 61 63 64 64 65 66 67 65 63 61 59 58 59 62 65 68 67 66 65 64 61 57 54 53 54 54 53 53 53 52 52 52 52 53 53
57 56 55 54 54 55 56 56 55 54 54 54 54 55 56 56 56 56 57 57 57 57 58 59 60 60 60 60 58 56 54 53 53 52 51 52 54 56 57 57 55 53 51 52 53 54 56 56 57 57 58 60 61 61 61 61 63 65 65 63 60 56 54 54 59 64 68 68 68 67 65 62 59 56 55 54 54 55 55 55 54 52 51 52 52 53
57 56 55 54 53 54 54 54 54 54 53 53 54 54 55 55 55 56 56 56 56 57 58 59 60 60 61 60 59 57 55 54 54 54 53 53 55 56 57 56 54 52 51 51 52 53 53 54 55 56 57 58 59 59 60 59 61 64 65 64 61 56 52 52 56 63 69 71 71 70 67 64 60 57 56 55 55 56 56 56 54 52 50 50 50 51
59 58 57 55 54 53 53 53 53 53 53 53 54 54 54 54 54 55 55 55 56 57 58 59 60 60 61 61 60 58 56 55 54 54 55 56 57 57 57 56 54 51 50 50 51 52 52 52 53 55 56 57 57 57 58 57 59 63 66 67 64 59 53 51 53 59 66 71 72 71 69 65 61 58 57 57 56 56 56 56 54 52 50 48 48 49
60 59 59 57 56 55 54 54 53 53 53 53 54 54 54 54 54 54 55 55 56 56 57 58 60 61 61 61 60 59 57 55 55 55 55 56 57 58 58 57 55 52 49 48 50 51 52 52 53 55 56 57 57 56 55 55 57 61 66 68 66 61 54 50 50 53 58 63 67 68 68 66 62 60 59 59 58 56 56 55 54 52 49 48 47 46
59 59 59 58 57 56 56 55 54 54 53 53 53 53 53 53 53 53 54 55 55 56 56 58 59 61 61 61 60 59 58 56 55 55 55 56 57 58 59 59 57 54 50 48 48 50 51 51 52 53 55 56 56 55 53 52 54 58 63 66 65 61 54 48 46 48 51 54 59 63 65 65 63 61 61 61 59 56 55 55 54 52 50 48 46 46
57 58 58 58 58 57 57 56 55 54 53 53 53 52 52 51 52 53 54 55 55 55 55 57 59 61 61 61 61 60 58 57 56 55 55 56 57 59 59 60 59 56 52 48 48 49 50 50 50 51 53 54 54 53 52 51 52 55 59 62 63 61 55 48 45 44 46 48 53 58 61 62 62 62 62 62 59 56 55 55 54 52 50 49 47 47
55 56 56 57 57 57 57 56 56 55 54 53 52 51 50 50 51 53 55 55 54 54 55 57 59 60 61 61 61 60 59 58 56 55 54 55 57 58 59 60 60 59 54 50 47 47 49 50 50 50 51 52 52 51 51 50 51 52 56 59 61 61 57 51 46 43 43 45 49 54 58 60 60 61 62 61 59 56 54 54 53 52 51 49 48 48
52 53 54 55 55 56 56 56 56 55 55 54 52 51 50 50 51 53 55 55 54 55 57 58 60 60 61 62 62 61 60 59 57 55 53 54 56 58 59 60 61 61 57 51 47 46 48 49 49 49 49 50 50 50 50 49 49 50 53 56 59 60 59 54 49 45 43 43 47 52 57 59 60 61 62 61 59 56 53 52 51 51 51 50 49 49
50 50 51 51 52 53 54 54 55 55 54 53 52 51 50 50 51 52 53 53 54 55 57 59 60 60 61 62 62 63 62 60 57 54 53 54 56 57 58 60 62 61 58 52 48 46 48 49 49 48 47 48 49 49 49 48 48 49 50 53 56 59 59 56 52 48 44 44 46 51 56 59 61 61 61 61 59 56 54 52 50 49 50 51 51 50
50 49 49 49 49 49 50 51 52 53 53 53 52 51 51 51 51 51 51 51 53 55 56 57 59 59 60 61 62 63 63 60 56 54 54 55 55 56 57 59 61 62 59 53 49 47 48 49 49 48 46 46 48 48 48 47 46 47 48 51 54 57 58 57 54 50 46 45 46 50 55 58 59 60 61 61 59 56 54 52 50 50 51 53 53 52
51 50 49 48 47 47 48 48 49 50 51 51 51 51 51 51 51 50 50 50 51 53 54 56 57 58 59 61 62 63 63 59 55 54 54 55 55 55 56 58 61 62 60 55 50 48 49 50 49 47 46 46 47 48 47 45 44 44 46 49 52 56 58 57 55 51 47 45 46 50 53 56 58 59 61 61 59 56 54 53 52 52 53 55 55 54
53 52 51 50 49 48 47 47 47 48 48 49 50 50 51 51 51 50 50 50 50 51 52 54 55 57 58 60 62 63 62 59 56 54 54 55 55 54 55 57 59 61 61 56 51 49 49 50 50 48 46 45 46 47 46 44 43 42 44 46 50 54 56 57 55 52 49 46 46 48 51 54 56 59 61 61 60 57 55 54 54 54 55 56 56 54
53 53 52 51 50 49 49 48 47 47 47 47 47 48 49 50 50 50 50 49 49 50 51 52 54 56 57 59 61 62 62 59 56 54 54 54 54 54 54 55 57 60 61 57 52 48 48 49 49 48 46 45 46 46 45 44 42 41 42 45 48 52 54 55 54 53 51 48 46 46 48 52 55 57 61 62 61 58 56 55 54 54 55 56 56 54
53 53 52 52 51 50 50 49 48 47 47 46 45 46 46 47 48 49 49 49 49 50 50 51 53 54 56 57 59 61 61 59 56 54 54 54 54 53 53 54 56 58 59 57 53 49 48 49 48 47 45 44 44 45 45 43 42 41 41 44 47 50 52 52 52 52 51 49 47 45 47 51 54 57 60 62 61 60 57 55 54 54 55 55 55 54
51 51 51 51 50 50 50 50 49 48 48 46 45 44 44 45 45 46 47 48 48 49 50 51 52 53 54 56 58 60 60 58 56 55 55 54 53 52 52 54 56 58 58 56 53 50 49 49 48 45 43 43 43 44 44 43 41 41 41 44 46 49 50 50 50 50 51 50 49 47 47 51 54 57 60 61 61 60 57 54 53 54 56 56 55 54
49 49 49 48 48 48 49 49 49 49 48 47 46 45 44 44 43 43 44 45 46 47 49 50 51 52 53 55 57 58 58 57 56 55 54 53 52 51 52 54 56 58 58 56 53 51 50 50 48 45 44 43 43 43 43 42 41 41 42 44 46 47 48 47 48 50 51 51 50 49 48 51 54 57 59 61 61 59 56 54 52 53 55 55 55 54
46 46 46 45 45 45 46 47 48 48 48 48 47 46 45 44 43 42 42 42 43 44 46 48 50 51 52 53 55 56 57 56 56 55 54 52 50 49 50 52 56 58 58 55 52 51 51 50 48 46 45 44 43 42 41 41 40 41 42 44 45 46 47 47 48 50 51 51 51 50 49 51 54 57 59 61 61 60 57 54 52 51 52 54 54 53
44 43 43 42 42 42 42 43 45 46 46 47 46 46 45 44 43 42 41 40 40 41 43 46 48 50 51 52 53 54 55 55 55 54 53 51 49 48 49 51 55 57 57 54 51 50 51 50 49 47 46 45 44 43 42 42 42 42 43 43 45 46 47 48 49 50 51 51 51 50 50 51 54 57 59 61 62 61 59 56 53 51 51 52 53 54
41 41 40 39 38 38 38 39 40 42 43 44 45 45 45 44 43 42 40 39 38 39 41 43 46 48 50 51 52 53 53 54 53 53 52 50 49 48 48 51 54 56 56 53 50 49 51 50 48 45 44 45 45 45 45 45 45 45 44 44 45 47 48 49 50 50 50 50 50 50 49 50 53 56 59 61 62 62 60 58 55 54 52 52 53 55
39 38 37 36 36 35 35 35 37 38 40 42 44 45 45 45 45 43 41 38 36 36 37 40 43 47 49 51 51 52 52 52 52 51 50 49 48 47 48 51 54 55 54 51 50 50 51 50 47 44 43 43 44 45 46 48 48 48 47 46 46 47 48 49 49 50 49 50 50 49 48 49 52 56 58 60 61 61 60 58 57 56 55 54 54 55
38 36 36 35 33 33 32 33 34 35 37 39 41 43 44 45 44 43 42 39 36 34 33 36 40 43 46 49 50 50 50 50 49 49 48 47 46 47 49 51 53 54 53 51 51 52 52 50 47 45 43 43 43 44 46 47 48 49 48 48 47 46 46 48 49 49 49 49 49 48 47 48 52 56 58 59 59 59 59 58 57 57 57 56 55 55
38 36 35 34 32 32 31 31 31 31 33 35 37 40 41 42 42 42 41 39 37 34 32 34 37 40 43 46 47 47 47 46 46 45 45 44 45 46 48 51 53 53 52 53 53 53 52 50 47 45 44 43 43 43 44 45 47 48 49 48 47 46 46 47 48 49 49 49 47 45 44 48 53 57 59 58 58 58 58 57 57 57 57 56 56 56
39 37 35 34 32 31 30 29 29 29 30 31 33 35 37 38 39 39 39 37 35 32 31 32 34 38 41 43 44 44 43 42 41 41 41 42 43 45 48 51 53 53 53 54 54 53 51 49 47 45 43 42 41 42 42 44 46 48 49 48 47 46 45 46 46 47 48 48 45 43 44 49 54 58 58 57 57 57 57 57 57 57 57 56 56 56
39 37 35 34 32 31 30 29 28 27 27 29 30 32 33 34 35 36 36 35 33 30 29 30 33 36 39 41 41 40 39 38 38 38 38 40 42 45 48 51 52 53 53 54 54 52 49 47 45 42 40 39 39 39 40 42 44 46 47 47 46 45 43 43 43 45 46 46 45 44 46 49 53 55 56 57 57 58 58 58 58 57 57 56 56 55
39 37 36 34 32 31 29 28 27 27 27 27 27 28 29 30 31 32 32 31 30 28 28 29 32 35 38 39 39 38 37 36 36 36 37 39 42 45 48 51 52 53 53 53 52 49 46 43 40 38 36 36 36 37 39 40 42 43 44 45 45 44 42 42 42 43 43 44 44 45 47 48 50 51 53 55 57 58 59 59 58 58 57 57 56 55
40 38 36 35 33 31 29 28 27 26 25 25 25 25 26 27 28 28 29 28 26 26 27 29 33 36 38 38 38 37 36 35 35 36 38 39 42 45 48 51 52 53 53 52 49 45 41 38 37 35 35 35 36 37 38 39 41 42 43 44 44 43 42 42 42 42 42 42 43 44 45 46 47 48 51 53 56 58 59 59 59 58 57 57 56 55
41 39 37 36 34 32 30 28 26 25 24 24 24 23 24 24 25 25 25 24 24 24 26 30 33 36 37 38 37 37 36 36 36 37 38 40 43 45 48 50 51 52 52 50 46 41 38 37 36 35 34 35 36 38 39 40 41 42 43 43 43 43 43 44 44 43 43 42 42 43 43 44 45 47 49 52 56 58 60 60 60 59 58 57 56 54
43 40 38 36 34 32 30 28 26 25 24 23 23 22 22 22 22 22 22 22 23 24 27 30 33 35 36 37 37 37 36 36 37 38 40 41 43 45 47 49 50 51 50 47 44 41 39 37 36 34 33 35 36 38 39 40 41 43 43 44 44 45 46 47 48 47 45 43 42 41 41 41 43 45 48 51 55 58 60 60 60 59 58 57 55 53
45 42 39 36 34 33 31 29 27 25 24 23 22 21 20 20 19 20 20 21 23 25 27 30 32 33 34 35 35 36 36 37 38 40 42 43 44 45 47 48 50 50 49 47 44 42 41 39 36 34 33 35 36 37 38 38 40 42 44 44 45 45 47 49 50 49 46 43 41 40 39 39 41 43 47 50 54 57 59 60 59 58 57 56 54 51
48 44 40 37 35 33 31 29 27 25 24 23 22 21 20 19 18 19 20 22 24 26 28 30 31 32 32 33 34 35 36 38 39 41 43 44 45 46 47 49 49 49 49 48 46 44 42 40 37 35 36 37 38 37 36 36 37 40 43 44 44 45 47 48 49 47 45 43 41 39 38 38 40 43 46 50 53 56 59 59 59 58 56 55 52 50
Wind_Direction
274 274 274 274 274 274 274 275 275 276 277 277 276 275 274 273 272 270 269 268 266 265 263 260 258 256 254 253 251 251 250 250 251 252 253 253 253 251 247 241 236 234 233 233 234 234 235 235 235 234 234 233 231 231 232 232 231 231 230 230 229 229 230 232 234 235 237 239 241 243 245 246 246 245 245 246 248 248 246 241 237 234 229 223 220 219
274 273 273 272 272 271 272 272 272 272 273 274 274 274 274 273 273 272 271 269 268 267 265 262 260 257 255 253 252 251 250 249 249 250 250 251 252 251 248 244 239 235 233 233 233 233 233 233 233 234 234 233 232 231 231 231 231 231 230 230 229 229 230 231 233 235 237 238 240 242 244 245 245 245 245 247 248 248 245 241 238 235 230 224 220 218
274 274 273 273 272 271 270 270 270 269 270 270 271 271 272 272 272 271 271 270 270 268 267 265 262 259 256 254 252 251 250 249 248 248 249 249 250 250 249 245 241 237 234 233 233 233 231 231 231 233 234 235 232 230 229 229 230 231 231 230 229 229 229 231 232 235 237 238 240 242 244 245 245 245 246 248 249 247 243 240 237 234 230 226 222 219
274 274 274 274 273 272 271 271 270 269 269 268 268 268 268 269 269 269 269 269 269 269 268 267 265 262 258 255 253 251 250 249 248 247 247 248 248 249 248 247 243 239 236 235 235 234 231 230 230 232 234 236 234 230 227 227 228 230 230 230 229 229 229 230 232 235 237 238 240 241 243 244 245 246 247 249 249 247 242 238 236 233 229 228 227 223
274 274 274 274 273 272 272 271 271 271 270 269 268 268 267 267 267 267 267 267 267 267 268 267 266 264 261 258 255 252 250 249 247 247 246 246 247 247 247 247 244 241 238 236 235 234 232 230 230 231 234 237 236 232 228 227 227 229 230 230 230 229 229 230 232 234 237 238 240 241 242 243 244 246 248 250 249 246 241 238 235 232 229 228 228 225
274 273 273 273 273 272 272 271 271 271 271 270 269 268 268 267 266 266 265 265 264 264 265 265 265 265 263 261 258 255 251 249 247 246 246 245 245 246 246 246 245 243 240 238 236 234 232 230 230 231 234 237 238 234 229 227 227 228 229 230 230 230 229 229 231 234 236 238 239 240 242 243 244 247 249 251 250 246 241 238 235 232 228 228 228 227
274 273 272 272 272 272 272 271 271 271 271 270 270 269 268 267 267 266 265 264 263 262 262 262 262 263 263 263 261 258 254 251 248 247 246 245 245 244 245 245 244 243 241 239 237 235 234 231 230 231 233 236 238 236 231 228 228 228 228 229 229 229 229 229 230 233 235 236 238 239 241 243 245 247 250 251 249 246 242 239 236 232 229 229 229 228
274 273 272 272 272 271 271 271 270 270 270 270 270 269 269 268 267 266 265 264 263 262 261 261 260 260 261 262 262 260 258 254 251 248 246 245 244 244 244 244 244 243 242 240 238 237 235 233 232 231 233 235 237 237 234 230 228 228 228 228 229 229 229 229 230 231 233 235 236 238 240 243 246 248 250 250 249 246 242 239 236 232 229 229 230 229
275 274 273 272 271 271 271 270 269 269 269 269 269 269 269 268 267 266 266 265 264 263 262 261 260 259 259 260 260 261 260 257 254 251 248 246 245 244 243 243 243 242 241 240 239 239 237 236 233 232 232 234 235 236 236 233 230 228 228 228 228 228 228 229 230 230 232 234 235 237 240 243 246 248 250 250 249 246 242 238 235 232 229 228 229 229
276 275 274 273 272 271 271 270 269 268 268 268 268 268 268 268 268 267 266 265 264 263 263 262 261 260 259 258 258 259 259 259 257 254 251 248 246 245 244 243 243 242 241 240 240 239 239 237 235 234 233 233 234 235 236 235 232 229 228 228 227 228 228 229 230 230 231 233 235 237 240 242 245 247 249 250 249 246 240 236 233 231 228 227 227 226
276 276 275 274 273 271 271 270 270 269 268 267 267 267 267 267 268 268 267 266 264 263 263 262 262 261 260 259 258 257 258 258 257 256 253 250 248 246 245 244 243 242 241 240 239 239 240 239 238 236 235 233 232 233 235 235 234 231 229 228 228 228 229 229 230 230 232 233 234 236 238 240 244 247 249 250 248 244 237 234 232 230 228 226 225 224
278 277 276 275 274 272 271 270 270 269 268 267 267 267 267 266 267 267 267 266 265 264 263 262 262 261 261 260 259 257 256 256 257 256 254 252 249 248 246 245 244 242 241 240 239 239 239 240 240 239 237 234 232 232 233 234 234 232 230 229 229 229 229 229 230 231 232 233 233 235 237 240 244 247 249 249 246 241 235 231 230 229 227 226 224 223
280 279 278 276 275 274 272 271 270 269 268 268 267 267 267 266 266 266 266 266 265 264 263 263 262 261 261 261 260 259 257 256 255 255 255 253 251 249 247 246 244 243 242 241 239 238 238 240 241 240 239 236 234 232 232 233 233 232 231 230 230 229 228 228 229 231 232 232 234 236 239 242 245 247 248 246 242 236 232 230 229 228 226 225 223 222
282 281 280 278 277 275 274 273 272 270 269 268 267 267 266 266 265 265 265 265 264 264 263 263 262 261 260 260 260 260 259 257 255 254 254 253 252 250 248 246 245 244 243 242 240 238 237 238 240 241 240 238 236 234 233 232 231 230 230 230 229 228 227 227 228 230 231 232 234 236 240 243 245 246 245 242 237 232 229 228 227 226 224 223 222 221
285 284 283 281 279 277 275 274 273 271 270 269 268 267 266 266 265 264 264 264 264 263 263 262 262 260 259 259 260 260 260 258 256 255 254 253 252 251 249 247 245 244 243 243 241 239 237 237 238 240 241 240 238 237 235 233 230 227 227 228 228 227 226 226 228 229 231 232 235 237 240 242 244 245 243 238 233 230 228 227 226 224 223 222 221 221
287 286 285 283 281 279 277 276 275 273 271 270 269 268 267 266 265 264 264 263 263 263 262 262 261 260 259 258 258 259 260 259 258 256 254 253 251 250 249 248 246 244 243 243 242 241 238 237 237 238 240 240 240 239 238 235 230 226 225 225 226 226 226 226 227 228 230 232 235 238 240 242 244 244 241 235 231 228 227 225 224 223 222 220 221 221
289 288 287 285 284 282 280 278 276 275 273 272 270 269 268 267 265 264 264 263 263 262 262 261 261 261 259 258 257 257 259 259 259 257 255 253 251 249 248 247 246 245 244 243 243 242 240 237 236 237 238 240 241 241 241 238 233 228 225 222 222 224 226 226 227 228 229 232 235 238 240 242 243 243 240 234 229 227 226 224 223 222 221 220 221 222
290 289 288 287 285 284 282 280 278 277 275 274 272 271 269 268 266 265 264 263 263 262 261 261 261 260 260 258 256 255 256 258 258 257 255 253 251 249 248 247 247 246 245 244 243 242 241 239 237 236 237 239 240 242 242 241 238 234 229 223 221 222 224 226 226 227 229 232 236 239 240 242 242 241 236 231 228 226 224 223 222 222 221 220 221 223
291 290 289 288 287 285 284 282 280 279 277 276 275 273 271 269 268 267 265 264 263 262 261 261 260 259 259 257 256 255 255 256 257 257 255 253 250 248 247 247 247 246 245 244 243 242 242 240 238 236 236 237 239 241 243 243 243 240 235 227 223 222 223 224 225 227 229 232 236 239 240 241 241 238 233 229 226 224 223 222 221 221 221 221 222 224
291 290 289 288 288 287 285 283 281 280 279 277 276 275 273 271 269 268 266 265 264 262 261 260 259 258 257 256 255 254 254 255 256 256 255 253 250 248 246 246 246 246 246 244 243 242 242 241 239 237 236 236 238 240 242 244 244 243 238 230 224 222 222 223 225 227 229 232 236 239 240 240 239 237 231 228 225 224 223 221 221 221 221 221 222 224
290 289 289 289 288 287 286 284 283 282 280 279 277 276 274 272 270 269 267 266 265 263 262 261 259 258 257 256 254 253 252 253 253 253 253 252 249 247 245 245 246 247 247 244 242 241 242 241 240 237 235 235 237 239 242 244 245 244 238 230 224 222 222 223 225 227 229 233 236 239 239 239 238 235 231 227 225 225 224 222 221 221 221 221 222 223
289 288 288 287 286 285 285 284 284 282 281 279 278 276 274 273 271 269 268 266 265 264 263 261 259 258 256 255 253 251 250 251 251 251 250 249 248 246 244 244 245 247 248 247 243 240 241 242 241 238 236 235 236 238 241 244 246 244 238 230 225 224 224 225 226 227 229 233 236 238 237 237 237 235 231 226 225 225 226 224 222 221 221 221 221 223
288 287 286 285 284 283 283 283 283 282 281 279 278 276 275 273 272 270 268 267 266 265 263 261 259 258 256 254 252 250 248 248 249 250 249 248 246 244 242 242 243 245 248 248 244 241 241 242 242 240 238 236 236 238 240 244 246 244 238 231 228 228 228 227 227 228 230 233 235 235 235 235 236 235 230 226 224 225 226 225 223 222 221 220 221 222
288 286 285 284 282 281 281 280 280 280 279 278 277 276 275 274 272 270 269 267 266 264 263 261 260 258 256 254 252 250 248 247 247 248 248 247 246 243 241 240 240 242 245 246 244 242 241 243 244 242 240 238 238 238 239 243 245 244 240 235 232 231 231 228 228 229 232 233 233 233 232 233 235 234 229 225 223 224 226 226 225 223 221 220 220 222
287 286 285 284 283 281 280 279 279 278 278 277 277 276 275 274 273 271 269 267 266 265 264 263 261 259 256 254 252 250 247 246 246 247 247 247 246 243 241 239 238 240 242 243 243 242 242 243 243 243 242 241 240 240 240 242 245 245 243 239 236 234 233 229 227 229 232 234 233 232 232 233 234 232 227 223 222 223 225 226 225 223 221 220 221 222
286 285 284 283 282 281 280 279 278 278 277 276 276 275 275 274 273 271 269 267 266 265 264 263 261 259 256 254 253 250 247 245 245 246 247 247 246 244 241 238 238 238 239 241 241 241 242 243 243 242 243 243 242 240 240 241 244 245 245 242 239 236 233 229 226 227 229 232 233 233 233 233 233 230 225 221 220 221 223 225 225 224 222 221 221 222
284 283 282 281 280 280 279 278 278 277 276 276 275 274 274 273 273 271 269 267 266 265 264 263 262 259 257 255 253 250 248 245 244 244 245 246 246 244 241 238 237 237 238 239 240 241 242 243 243 244 244 244 243 240 239 239 241 244 245 243 240 236 233 230 227 225 225 229 231 232 232 232 231 228 223 219 218 219 221 223 224 224 222 222 222 222
285 283 282 280 279 278 277 276 276 275 275 274 274 273 272 271 270 269 268 266 265 264 263 263 261 260 258 255 253 250 248 246 244 243 244 245 245 244 241 238 236 236 237 238 239 240 241 242 243 244 245 244 242 240 238 237 239 241 243 242 240 236 233 231 229 227 225 226 227 228 229 229 228 226 222 219 217 217 220 222 223 223 222 222 222 222
287 285 283 281 279 277 276 275 274 274 273 273 272 271 270 268 267 267 267 266 265 263 262 261 260 259 258 256 254 251 249 246 243 242 243 245 245 243 241 238 236 235 236 238 239 240 240 240 241 243 244 242 241 239 237 236 237 239 241 241 239 236 233 232 231 230 228 225 224 224 225 226 226 225 222 218 216 216 218 220 222 222 222 222 222 222
291 288 285 282 280 278 276 274 273 272 271 271 270 269 268 267 266 265 266 265 263 262 262 261 260 259 258 257 256 253 250 245 242 241 243 245 245 243 240 238 235 234 234 236 238 239 239 238 239 241 242 241 239 238 237 236 236 237 238 239 238 236 234 233 233 232 230 227 224 222 223 225 225 224 222 218 215 215 217 218 219 219 220 222 223 224
295 292 289 286 283 279 276 274 272 270 269 269 268 267 267 265 265 264 264 263 262 261 260 260 260 259 258 258 257 255 251 245 241 240 243 245 244 242 239 237 235 233 232 233 236 238 238 238 237 238 240 240 238 237 236 235 235 235 236 237 237 236 235 234 234 233 232 228 224 221 221 223 224 223 220 217 215 215 216 216 216 217 219 221 223 224
298 295 292 289 286 283 279 276 273 271 269 267 267 266 265 265 264 264 263 262 260 260 260 259 259 259 258 257 257 255 251 246 242 241 243 245 244 241 238 236 234 232 231 231 233 236 239 239 238 237 238 238 237 235 235 234 233 233 234 235 235 235 235 235 234 233 232 228 223 220 220 222 223 222 219 217 215 214 215 215 216 216 218 220 222 223
299 297 294 292 289 286 283 279 276 273 270 268 266 265 264 264 264 263 262 261 260 259 258 258 258 258 258 257 256 254 251 246 243 242 243 245 244 241 238 235 233 231 230 230 232 234 237 239 239 238 238 238 236 234 233 232 231 231 232 233 234 234 235 235 234 233 231 228 224 221 220 222 222 222 219 217 215 214 214 215 216 217 218 219 220 222
299 297 296 293 291 288 286 283 280 277 273 270 268 266 264 264 263 262 261 259 258 257 257 256 256 256 256 256 256 253 250 246 243 242 243 244 243 240 237 234 232 230 229 230 231 232 234 236 238 239 239 239 237 235 232 230 228 228 229 230 232 233 234 235 234 233 232 230 227 223 222 222 222 222 220 218 216 215 215 217 219 220 221 220 220 221
300 298 296 294 292 290 288 286 284 281 278 275 272 269 267 265 263 262 260 258 257 255 255 254 254 254 254 255 254 253 250 246 243 243 244 244 242 239 235 232 230 228 228 229 230 230 231 234 236 238 239 239 238 235 231 226 223 223 225 228 230 233 234 235 235 234 233 231 229 226 224 222 222 221 221 219 217 216 216 218 221 223 223 223 222 222
299 298 296 294 292 291 289 288 286 284 282 280 278 275 271 268 266 263 261 258 256 254 253 252 252 252 252 252 252 251 249 246 244 243 244 243 241 238 234 230 227 226 227 228 229 229 230 232 234 237 239 240 238 234 229 224 220 219 221 225 229 232 234 235 235 235 234 233 231 228 224 222 221 220 220 219 218 216 216 218 221 223 224 224 223 224
298 297 295 294 292 290 289 288 287 286 284 283 281 279 276 273 270 266 263 259 256 254 252 251 250 249 249 249 249 249 247 245 244 244 243 242 240 237 233 228 225 223 225 227 228 228 229 231 233 237 239 240 238 233 227 223 220 218 219 222 226 230 232 233 233 233 233 234 232 228 223 220 220 219 219 219 218 217 217 218 220 221 222 223 223 225
298 296 294 293 291 290 289 288 287 286 285 284 283 282 279 277 274 270 266 262 258 254 251 249 248 247 247 247 247 247 246 244 243 242 241 240 238 235 231 227 223 222 223 225 227 228 229 231 234 238 240 241 238 233 228 223 221 220 220 222 225 228 230 230 230 231 233 234 233 228 222 218 218 218 218 217 217 216 216 217 218 219 220 221 222 224
298 296 294 293 291 290 288 287 286 285 284 283 282 282 281 279 277 274 270 266 261 256 252 249 247 245 245 244 244 244 244 243 241 240 239 237 234 230 227 224 222 221 222 223 225 226 228 231 234 237 240 240 239 234 229 226 223 222 222 223 225 227 228 228 229 230 233 234 231 226 219 216 216 217 217 216 216 215 215 215 216 217 218 220 221 223
300 298 296 294 292 290 288 286 284 283 281 281 281 281 281 280 279 277 274 270 264 258 252 248 246 244 243 242 242 242 241 241 239 238 236 233 229 225 222 220 220 220 220 222 223 224 227 230 233 236 239 240 238 235 230 227 225 225 224 223 223 224 226 227 228 230 232 232 229 223 217 214 215 216 217 216 215 215 215 215 215 215 216 218 220 221
303 301 299 297 294 291 287 284 282 281 279 279 278 279 280 281 281 280 279 275 269 261 254 248 244 242 241 240 240 239 239 238 237 235 233 229 225 221 217 216 217 218 219 221 222 223 225 228 232 236 238 239 238 235 231 229 227 226 226 225 224 224 224 226 228 229 230 230 226 220 215 213 215 217 217 216 215 215 216 216 216 216 215 216 218 220
307 304 302 299 296 293 289 285 282 279 277 275 275 276 278 279 279 278 278 276 272 264 255 248 244 241 240 239 238 237 237 236 235 233 230 225 221 217 214 213 214 215 218 220 221 223 226 229 233 237 240 239 237 234 231 229 228 227 227 227 226 224 224 226 227 228 228 227 223 218 213 213 216 218 218 217 216 216 217 218 218 218 217 217 218 219
309 306 304 301 297 294 291 287 283 279 275 273 273 273 274 275 275 275 275 273 270 265 257 249 244 241 239 237 236 235 235 234 232 230 226 222 218 214 211 210 211 213 216 219 221 223 226 229 234 239 240 238 235 232 229 228 227 227 228 228 227 225 224 225 226 226 226 225 221 216 213 213 216 218 219 219 218 217 218 218 219 219 219 219 218 219
312 308 305 302 299 296 293 289 285 281 277 274 272 271 271 270 271 271 272 271 268 263 255 246 240 237 236 235 234 233 232 231 229 227 223 219 215 212 210 208 208 211 215 218 221 224 226 230 234 236 236 233 231 230 228 227 226 226 227 227 227 226 226 225 225 225 224 223 219 215 212 213 216 219 221 221 220 219 219 219 219 220 220 220 220 220
315 312 309 306 303 300 297 293 289 284 280 276 273 271 270 269 269 269 269 268 265 259 249 240 235 233 232 232 231 230 229 227 226 223 220 216 213 210 208 207 207 209 213 217 221 224 227 230 232 231 229 228 228 228 228 227 225 225 225 225 225 226 227 227 227 227 225 223 218 213 211 213 216 220 222 222 222 221 220 219 219 220 221 221 221 222
320 316 313 309 306 303 299 295 291 287 283 279 276 274 272 270 269 268 268 266 262 253 242 232 228 227 227 228 228 227 227 225 223 221 218 215 211 209 207 206 206 208 213 217 220 223 226 226 225 224 223 225 226 227 226 225 224 223 222 221 222 222 224 226 228 228 227 224 220 215 213 215 218 221 223 223 223 221 220 219 219 220 221 222 222 223
326 321 316 313 309 306 301 298 295 292 288 285 282 278 275 272 270 268 266 262 256 246 233 225 222 222 223 224 224 224 223 222 221 219 217 214 210 208 206 206 206 208 212 216 219 220 220 219 218 219 221 222 223 222 222 221 220 219 218 217 217 218 220 222 225 228 228 226 223 219 218 219 220 222 223 223 222 220 219 218 219 220 221 222 223 224
331 325 320 316 313 309 306 303 301 298 296 293 289 284 279 275 271 267 262 256 247 237 226 219 218 219 221 221 221 220 219 218 217 217 216 213 210 207 206 206 207 209 212 214 215 215 213 213 215 219 221 221 219 216 214 213 213 213 213 212 213 213 215 218 223 227 228 227 224 223 222 223 224 223 223 221 220 218 217 217 218 219 221 222 223 224
336 330 325 320 317 314 312 309 307 304 302 298 294 289 282 276 270 264 257 248 238 228 221 217 217 219 221 221 220 218 216 215 215 215 214 212 210 207 206 206 207 209 211 212 211 210 210 212 216 220 223 221 217 213 210 208 207 207 207 207 208 209 211 215 220 224 226 225 224 223 224 225 226 225 223 220 218 217 216 216 217 219 221 222 224 225
340 335 330 325 321 318 316 314 312 308 304 300 296 291 285 277 268 259 250 239 230 223 219 217 219 221 222 222 220 217 215 214 214 214 213 211 209 208 207 206 206 207 208 208 207 208 210 213 217 221 222 220 216 211 209 207 205 204 203 204 206 208 212 216 220 223 224 223 221 221 223 225 226 225 223 220 218 216 215 216 217 219 221 223 224 226
343 339 334 329 325 322 319 317 314 310 305 301 297 292 286 277 267 255 243 234 227 222 220 220 222 224 225 223 219 216 214 213 213 213 212 210 209 207 206 205 205 204 205 205 206 207 210 214 217 220 222 220 215 210 207 206 204 202 202 204 206 210 214 218 221 222 222 220 220 221 223 225 225 223 221 219 217 216 215 215 217 219 221 223 225 227
Height
2970 2970 2970 2972 2972 2971 2970 2971 2972 2971 2970 2970 2971 2971 2972 2972 2972 2973 2974 2974 2975 2975 2976 2977 2978 2979 2980 2981 2982 2984 2985 2986 2988 2989 2989 2990 2991 2993 2994 2995 2997 2998 3000 3001 3003 3005 3007 3009 3011 3014 3015 3016 3018 3019 3022 3024 3026 3028 3029 3032 3034 3035 3037 3039 3041 3043 3044 3046 3047 3048 3049 3049 3050 3052 3054 3056 3058 3059 3060 3062 3064 3066 3068 3069 3070 3071
2966 2965 2966 2967 2967 2966 2965 2966 2968 2968 2966 2965 2966 2966 2967 2967 2967 2967 2968 2969 2969 2970 2970 2971 2972 2973 2974 2975 2977 2978 2980 2981 2983 2984 2984 2985 2986 2987 2989 2990 2991 2993 2995 2996 2998 2999 3002 3004 3007 3009 3011 3012 3014 3015 3017 3019 3021 3023 3025 3027 3029 3031 3033 3035 3036 3038 3040 3041 3042 3044 3044 3046 3047 3048 3050 3052 3054 3056 3057 3059 3061 3063 3065 3066 3068 3069
2962 2961 2961 2962 2962 2961 2959 2960 2962 2963 2963 2961 2961 2962 2962 2962 2962 2962 2962 2963 2964 2964 2964 2965 2966 2967 2968 2969 2971 2973 2974 2976 2977 2979 2979 2980 2981 2982 2984 2985 2986 2988 2989 2991 2993 2994 2996 2999 3002 3004 3005 3006 3008 3010 3012 3014 3017 3019 3021 3023 3024 3026 3028 3030 3032 3034 3035 3037 3038 3040 3041 3043 3043 3044 3046 3049 3051 3053 3054 3056 3058 3060 3062 3064 3065 3066
2958 2957 2956 2956 2957 2956 2955 2956 2956 2957 2957 2957 2956 2957 2958 2957 2957 2957 2957 2958 2958 2958 2959 2959 2960 2961 2962 2963 2964 2966 2968 2970 2972 2973 2974 2975 2976 2977 2978 2980 2981 2983 2984 2986 2987 2989 2990 2993 2996 2999 3000 3000 3002 3005 3007 3009 3012 3014 3017 3019 3021 3022 3024 3026 3028 3029 3031 3033 3034 3036 3037 3039 3039 3041 3043 3045 3048 3049 3051 3053 3055 3057 3059 3062 3063 3063
2954 2953 2951 2951 2951 2950 2950 2951 2951 2951 2951 2951 2951 2951 2952 2952 2951 2952 2952 2953 2953 2953 2954 2954 2954 2955 2956 2957 2958 2960 2962 2964 2966 2968 2969 2970 2971 2972 2973 2974 2976 2978 2979 2980 2982 2984 2985 2987 2990 2993 2995 2995 2997 2999 3002 3004 3007 3009 3012 3014 3016 3018 3020 3022 3024 3025 3027 3029 3030 3032 3034 3034 3035 3037 3039 3041 3044 3046 3048 3050 3052 3054 3057 3059 3060 3061
2948 2948 2947 2946 2945 2944 2944 2945 2946 2946 2946 2945 2945 2946 2946 2946 2946 2946 2947 2947 2948 2948 2949 2949 2949 2950 2950 2951 2953 2954 2956 2958 2959 2961 2963 2964 2966 2967 2968 2969 2970 2972 2974 2975 2976 2978 2980 2982 2985 2987 2989 2990 2992 2994 2997 3000 3002 3004 3007 3009 3012 3014 3016 3018 3019 3021 3023 3025 3027 3028 3029 3030 3031 3033 3035 3038 3040 3043 3045 3047 3049 3051 3054 3056 3057 3058
2941 2942 2942 2941 2939 2939 2939 2939 2940 2941 2941 2940 2939 2940 2940 2940 2941 2941 2941 2942 2942 2943 2943 2944 2944 2945 2945 2946 2947 2949 2950 2952 2953 2955 2957 2959 2960 2961 2963 2964 2965 2967 2969 2970 2971 2973 2975 2978 2980 2982 2984 2985 2987 2989 2992 2995 2998 3000 3002 3005 3007 3010 3012 3013 3015 3017 3019 3021 3023 3024 3025 3026 3027 3029 3031 3034 3037 3039 3041 3044 3046 3048 3051 3053 3054 3055
2934 2935 2936 2936 2934 2933 2933 2934 2935 2936 2936 2934 2934 2934 2934 2934 2935 2935 2935 2936 2937 2937 2938 2938 2939 2940 2941 2942 2943 2944 2945 2946 2948 2949 2950 2952 2954 2956 2957 2959 2960 2962 2964 2965 2966 2967 2969 2972 2974 2977 2979 2980 2982 2984 2986 2990 2993 2995 2997 3000 3003 3005 3007 3008 3010 3012 3015 3017 3019 3020 3021 3022 3023 3025 3027 3030 3033 3036 3038 3041 3043 3045 3047 3050 3051 3052
2928 2928 2929 2929 2929 2928 2927 2927 2929 2931 2931 2929 2928 2928 2928 2928 2929 2929 2930 2930 2931 2932 2932 2933 2933 2934 2935 2937 2938 2939 2940 2941 2942 2943 2945 2946 2948 2950 2952 2953 2955 2956 2958 2960 2961 2962 2964 2966 2969 2971 2974 2976 2978 2979 2981 2984 2988 2990 2993 2995 2997 3000 3002 3004 3005 3007 3011 3013 3015 3017 3017 3018 3019 3021 3023 3026 3029 3032 3035 3037 3039 3041 3044 3046 3048 3049
2922 2922 2922 2922 2923 2923 2922 2921 2922 2925 2926 2924 2923 2922 2922 2923 2923 2924 2924 2924 2925 2926 2927 2927 2927 2928 2929 2931 2933 2934 2935 2936 2937 2938 2939 2941 2942 2944 2946 2948 2949 2951 2953 2955 2956 2957 2958 2960 2962 2965 2968 2970 2973 2975 2977 2979 2982 2985 2988 2990 2992 2994 2997 2999 3001 3004 3006 3009 3011 3013 3014 3015 3016 3017 3019 3022 3025 3029 3031 3034 3036 3038 3040 3042 3044 3046
2916 2916 2916 2915 2916 2916 2916 2915 2916 2918 2919 2919 2917 2916 2917 2918 2918 2918 2918 2918 2919 2921 2922 2921 2922 2922 2924 2925 2927 2929 2930 2931 2931 2933 2934 2936 2937 2939 2940 2942 2943 2945 2947 2949 2951 2953 2954 2954 2956 2959 2962 2964 2968 2970 2972 2974 2976 2979 2982 2984 2987 2989 2992 2995 2998 3001 3003 3005 3007 3009 3010 3012 3013 3014 3015 3018 3021 3024 3027 3029 3032 3034 3036 3039 3041 3043
2911 2910 2910 2909 2909 2909 2910 2910 2910 2911 2912 2912 2911 2911 2912 2913 2913 2913 2911 2911 2912 2915 2916 2916 2916 2917 2918 2919 2920 2922 2924 2924 2925 2927 2929 2930 2932 2934 2935 2936 2937 2939 2941 2943 2945 2947 2949 2950 2951 2953 2956 2959 2962 2965 2967 2969 2971 2973 2976 2979 2981 2984 2987 2990 2994 2996 2999 3001 3003 3004 3006 3007 3008 3009 3011 3014 3017 3020 3023 3025 3028 3030 3033 3035 3038 3040
2905 2905 2904 2903 2903 2903 2904 2904 2905 2905 2906 2906 2906 2905 2906 2907 2908 2907 2906 2905 2906 2908 2910 2910 2910 2911 2912 2913 2914 2916 2917 2918 2919 2921 2923 2924 2926 2928 2930 2931 2932 2933 2935 2937 2939 2941 2944 2946 2947 2949 2951 2953 2956 2959 2962 2964 2966 2968 2970 2973 2976 2979 2982 2985 2989 2992 2995 2997 2998 2999 3000 3001 3003 3005 3008 3010 3013 3016 3019 3021 3024 3027 3029 3032 3034 3037
2899 2899 2898 2897 2897 2897 2898 2899 2899 2899 2899 2900 2900 2900 2900 2900 2901 2901 2900 2899 2900 2902 2904 2904 2904 2904 2906 2908 2909 2910 2912 2913 2914 2915 2916 2917 2920 2923 2924 2925 2926 2927 2929 2931 2933 2935 2938 2941 2943 2944 2946 2949 2951 2953 2956 2959 2961 2963 2965 2968 2971 2974 2977 2981 2985 2989 2991 2992 2993 2994 2994 2996 2999 3001 3004 3008 3010 3012 3014 3018 3021 3023 3026 3029 3031 3033
2894 2893 2892 2891 2891 2891 2892 2893 2893 2892 2893 2894 2894 2894 2894 2894 2894 2895 2894 2894 2894 2896 2897 2897 2897 2898 2900 2902 2904 2906 2908 2908 2908 2909 2910 2911 2914 2917 2919 2920 2921 2922 2924 2925 2927 2929 2933 2936 2938 2939 2941 2944 2946 2948 2951 2954 2956 2959 2961 2964 2966 2969 2973 2977 2981 2985 2989 2988 2988 2989 2990 2993 2995 2998 3001 3005 3007 3009 3011 3014 3017 3020 3023 3025 3028 3030
2889 2888 2886 2885 2884 2885 2886 2887 2887 2886 2886 2888 2888 2888 2888 2888 2888 2888 2889 2888 2889 2890 2891 2890 2891 2892 2894 2896 2899 2901 2902 2903 2903 2904 2904 2905 2908 2911 2914 2916 2916 2916 2918 2919 2921 2924 2928 2930 2933 2934 2937 2939 2941 2943 2945 2948 2951 2954 2957 2960 2963 2965 2969 2972 2976 2980 2982 2982 2982 2984 2986 2989 2991 2994 2997 3001 3004 3006 3008 3011 3014 3017 3019 3022 3024 3027
2884 2883 2881 2879 2879 2879 2880 2881 2881 2880 2880 2881 2881 2882 2882 2881 2881 2882 2883 2882 2883 2884 2884 2884 2885 2885 2887 2890 2894 2897 2898 2898 2898 2898 2899 2899 2901 2905 2909 2911 2911 2911 2912 2913 2915 2918 2922 2924 2927 2929 2932 2934 2936 2939 2941 2943 2945 2949 2952 2955 2959 2962 2965 2968 2972 2976 2981 2979 2978 2979 2982 2984 2988 2991 2994 2997 3000 3003 3005 3008 3011 3014 3016 3019 3021 3024
2878 2878 2876 2874 2873 2873 2874 2875 2874 2874 2874 2874 2874 2875 2875 2875 2875 2876 2876 2876 2877 2877 2878 2879 2879 2880 2881 2883 2887 2891 2894 2894 2894 2894 2895 2894 2895 2899 2903 2905 2906 2906 2907 2908 2910 2912 2915 2919 2921 2924 2927 2929 2932 2934 2935 2938 2940 2943 2946 2950 2954 2958 2961 2964 2968 2971 2974 2973 2973 2975 2977 2980 2984 2987 2990 2994 2997 2999 3001 3005 3008 3011 3013 3015 3018 3020
2873 2873 2872 2870 2869 2868 2868 2868 2868 2869 2869 2868 2868 2868 2868 2868 2869 2869 2869 2870 2871 2871 2872 2872 2873 2874 2875 2877 2880 2884 2889 2889 2889 2890 2890 2889 2890 2893 2896 2899 2900 2901 2902 2903 2904 2907 2910 2913 2916 2919 2922 2925 2927 2929 2930 2933 2935 2938 2941 2944 2948 2952 2956 2959 2963 2966 2968 2968 2969 2970 2973 2976 2980 2984 2987 2990 2993 2996 2998 3001 3004 3007 3009 3012 3014 3017
2868 2867 2867 2866 2864 2863 2862 2862 2863 2863 2863 2863 2862 2861 2861 2861 2862 2863 2863 2864 2864 2865 2865 2866 2866 2867 2870 2871 2874 2879 2883 2884 2884 2884 2884 2884 2884 2887 2890 2892 2894 2896 2898 2898 2899 2902 2904 2907 2910 2914 2917 2919 2922 2924 2925 2928 2929 2932 2935 2939 2942 2946 2950 2955 2959 2962 2963 2963 2965 2966 2969 2972 2976 2980 2984 2987 2989 2992 2994 2998 3001 3004 3006 3009 3011 3014
2863 2862 2862 2863 2861 2858 2856 2856 2858 2859 2858 2857 2856 2855 2854 2855 2856 2856 2857 2858 2858 2859 2859 2859 2859 2861 2864 2866 2868 2872 2877 2878 2878 2878 2878 2878 2879 2881 2884 2887 2889 2891 2893 2894 2895 2898 2899 2902 2904 2908 2911 2914 2916 2918 2920 2922 2924 2925 2929 2933 2936 2940 2944 2949 2953 2956 2958 2959 2961 2962 2965 2969 2972 2976 2979 2982 2986 2989 2991 2994 2996 2999 3002 3005 3008 3011
2858 2856 2857 2858 2857 2854 2851 2851 2852 2853 2853 2852 2850 2849 2849 2850 2850 2850 2850 2852 2852 2852 2852 2853 2853 2855 2858 2859 2861 2866 2871 2872 2871 2871 2872 2872 2872 2874 2879 2882 2884 2886 2888 2889 2891 2893 2895 2897 2899 2902 2905 2909 2911 2914 2916 2918 2918 2919 2923 2927 2931 2934 2938 2944 2949 2952 2954 2955 2956 2958 2961 2965 2969 2972 2975 2979 2983 2986 2987 2989 2992 2995 2998 3002 3004 3007
2853 2851 2851 2852 2851 2849 2848 2847 2847 2847 2848 2847 2845 2844 2844 2844 2844 2844 2844 2846 2846 2845 2846 2846 2847 2849 2851 2853 2855 2859 2864 2866 2866 2866 2867 2867 2866 2868 2874 2877 2879 2882 2884 2885 2887 2889 2891 2892 2894 2896 2899 2903 2906 2909 2912 2913 2913 2915 2918 2922 2925 2929 2933 2938 2944 2948 2949 2950 2952 2954 2958 2961 2965 2968 2971 2975 2979 2983 2984 2985 2987 2991 2995 2998 3001 3004
2847 2846 2845 2846 2846 2845 2844 2843 2843 2842 2842 2841 2840 2839 2839 2839 2839 2839 2839 2840 2839 2839 2840 2841 2841 2843 2844 2846 2849 2853 2857 2860 2862 2862 2862 2861 2861 2864 2869 2872 2874 2876 2878 2880 2883 2885 2887 2888 2889 2891 2894 2897 2900 2904 2907 2908 2908 2909 2912 2916 2920 2924 2928 2932 2938 2943 2945 2947 2949 2951 2954 2957 2961 2964 2967 2971 2975 2979 2981 2981 2984 2987 2991 2995 2998 3001
2842 2840 2839 2839 2839 2839 2839 2839 2838 2838 2838 2837 2836 2835 2834 2834 2834 2834 2834 2834 2834 2835 2835 2835 2835 2836 2837 2841 2843 2846 2850 2854 2857 2857 2857 2856 2857 2860 2864 2867 2869 2870 2872 2875 2878 2880 2882 2884 2885 2888 2890 2892 2895 2899 2902 2904 2904 2905 2907 2910 2915 2919 2923 2927 2932 2938 2941 2944 2946 2948 2950 2953 2956 2960 2963 2966 2971 2975 2978 2978 2980 2984 2988 2991 2995 2998
2837 2835 2834 2833 2833 2833 2833 2833 2833 2833 2833 2832 2831 2831 2830 2830 2829 2829 2828 2828 2829 2830 2830 2830 2829 2829 2832 2835 2837 2839 2844 2849 2851 2852 2852 2852 2853 2855 2858 2862 2864 2865 2867 2870 2874 2876 2878 2879 2881 2883 2885 2887 2889 2894 2898 2900 2901 2902 2902 2905 2910 2915 2919 2923 2926 2931 2936 2940 2942 2944 2946 2949 2952 2955 2959 2962 2966 2970 2974 2975 2978 2981 2985 2988 2991 2994
2832 2830 2829 2828 2827 2827 2826 2826 2826 2827 2827 2827 2827 2827 2827 2826 2825 2823 2822 2822 2824 2826 2826 2824 2823 2824 2827 2829 2831 2833 2838 2842 2844 2846 2848 2849 2849 2850 2853 2857 2860 2861 2863 2865 2868 2870 2873 2874 2876 2878 2880 2882 2885 2889 2894 2897 2898 2899 2899 2901 2906 2911 2916 2919 2922 2925 2929 2934 2938 2940 2943 2945 2948 2951 2954 2957 2961 2966 2971 2972 2974 2978 2981 2985 2988 2990
2827 2825 2824 2822 2821 2821 2821 2820 2820 2820 2821 2821 2822 2822 2823 2822 2821 2818 2815 2817 2820 2822 2821 2819 2819 2819 2821 2823 2824 2827 2832 2835 2838 2841 2844 2844 2844 2844 2847 2852 2856 2858 2859 2861 2863 2866 2869 2870 2872 2873 2875 2878 2881 2885 2889 2893 2895 2895 2896 2898 2902 2907 2912 2915 2919 2921 2924 2928 2932 2936 2939 2942 2945 2947 2949 2953 2957 2962 2967 2969 2971 2974 2978 2981 2984 2986
2822 2820 2819 2817 2816 2815 2815 2814 2814 2814 2815 2815 2816 2817 2817 2817 2815 2812 2810 2813 2816 2816 2814 2813 2814 2815 2815 2817 2819 2821 2824 2827 2832 2836 2839 2840 2839 2839 2843 2848 2851 2854 2856 2858 2860 2863 2865 2865 2867 2869 2872 2875 2878 2881 2885 2889 2892 2892 2893 2895 2899 2904 2908 2912 2915 2918 2920 2923 2927 2931 2935 2938 2940 2942 2946 2949 2953 2958 2964 2966 2968 2971 2974 2977 2979 2981
2817 2815 2813 2812 2811 2810 2809 2809 2808 2809 2809 2809 2810 2810 2811 2810 2809 2807 2806 2809 2811 2810 2808 2808 2809 2810 2811 2812 2814 2814 2816 2820 2826 2832 2835 2834 2833 2835 2840 2844 2846 2848 2852 2856 2858 2859 2859 2860 2863 2865 2869 2872 2875 2879 2882 2885 2888 2889 2890 2892 2896 2900 2904 2908 2912 2915 2917 2919 2923 2926 2930 2933 2935 2938 2942 2946 2949 2954 2960 2963 2966 2968 2971 2973 2975 2978
2811 2809 2807 2806 2805 2804 2803 2802 2802 2802 2803 2803 2804 2804 2804 2804 2803 2803 2803 2804 2804 2803 2803 2803 2804 2805 2807 2808 2808 2807 2808 2814 2822 2828 2829 2829 2829 2831 2836 2839 2840 2844 2848 2851 2854 2855 2855 2856 2859 2862 2865 2868 2872 2875 2878 2881 2884 2886 2887 2889 2893 2896 2900 2904 2908 2911 2914 2916 2919 2922 2926 2928 2931 2934 2938 2942 2946 2951 2956 2959 2962 2965 2967 2969 2972 2974
2804 2803 2801 2799 2799 2798 2797 2796 2796 2796 2796 2797 2798 2798 2799 2799 2798 2798 2798 2798 2798 2798 2798 2798 2799 2799 2801 2802 2801 2801 2802 2809 2818 2823 2824 2824 2824 2827 2831 2834 2836 2839 2843 2846 2849 2851 2852 2852 2854 2857 2861 2865 2868 2871 2874 2877 2880 2882 2884 2887 2889 2893 2896 2901 2905 2908 2911 2914 2916 2919 2922 2925 2928 2931 2935 2939 2943 2947 2952 2955 2959 2961 2964 2966 2969 2971
2797 2796 2794 2793 2792 2791 2791 2790 2790 2790 2790 2791 2791 2792 2792 2793 2793 2793 2793 2793 2793 2793 2794 2794 2794 2794 2795 2795 2795 2796 2799 2804 2811 2816 2819 2819 2820 2823 2826 2829 2832 2835 2838 2842 2845 2848 2849 2850 2851 2854 2858 2861 2864 2867 2871 2874 2876 2879 2881 2884 2886 2890 2894 2898 2901 2904 2908 2911 2914 2916 2919 2922 2924 2928 2931 2935 2939 2944 2948 2952 2955 2957 2960 2963 2965 2969
2792 2790 2788 2787 2786 2785 2784 2784 2784 2784 2784 2784 2784 2785 2785 2786 2787 2787 2788 2788 2788 2789 2789 2789 2789 2789 2789 2790 2790 2791 2794 2799 2805 2810 2813 2814 2815 2817 2821 2825 2828 2831 2834 2837 2840 2844 2847 2848 2848 2850 2854 2857 2860 2864 2867 2870 2873 2876 2878 2881 2884 2887 2890 2894 2897 2900 2904 2907 2911 2914 2918 2920 2923 2925 2929 2932 2936 2940 2944 2948 2951 2954 2956 2959 2962 2965
2786 2784 2783 2782 2780 2779 2779 2778 2778 2778 2777 2778 2778 2778 2779 2779 2780 2780 2781 2782 2783 2783 2784 2783 2784 2784 2784 2785 2785 2785 2788 2793 2800 2805 2807 2809 2810 2813 2816 2819 2823 2827 2831 2833 2836 2840 2844 2845 2845 2846 2849 2854 2858 2861 2864 2867 2870 2873 2876 2879 2881 2884 2886 2889 2893 2896 2900 2904 2907 2910 2914 2917 2920 2923 2925 2928 2932 2935 2939 2944 2947 2951 2954 2957 2959 2962
2782 2780 2779 2777 2776 2774 2773 2773 2772 2772 2772 2772 2772 2772 2773 2773 2773 2774 2774 2775 2776 2777 2778 2778 2779 2779 2779 2779 2780 2781 2783 2788 2794 2799 2801 2803 2805 2809 2811 2814 2818 2823 2827 2829 2832 2835 2839 2841 2841 2843 2846 2850 2854 2857 2860 2864 2868 2871 2874 2876 2879 2881 2883 2886 2889 2893 2897 2900 2903 2906 2909 2913 2916 2918 2921 2924 2928 2931 2935 2939 2944 2948 2952 2954 2957 2959
2779 2777 2775 2773 2772 2770 2769 2768 2767 2766 2766 2766 2766 2766 2766 2766 2767 2767 2768 2769 2770 2771 2771 2772 2773 2774 2774 2774 2775 2776 2779 2784 2789 2792 2795 2798 2801 2804 2806 2809 2814 2819 2823 2825 2828 2832 2835 2837 2839 2841 2844 2847 2849 2853 2857 2861 2865 2869 2871 2873 2875 2878 2881 2884 2887 2891 2894 2896 2898 2901 2904 2908 2911 2914 2917 2921 2925 2929 2933 2936 2940 2944 2949 2952 2955 2957
2776 2774 2772 2770 2769 2767 2765 2763 2762 2762 2761 2760 2760 2760 2760 2760 2760 2761 2762 2763 2764 2764 2765 2766 2767 2768 2769 2769 2770 2772 2774 2779 2782 2786 2789 2792 2796 2799 2802 2806 2810 2814 2817 2821 2825 2829 2831 2833 2835 2838 2841 2844 2846 2850 2854 2858 2862 2865 2867 2870 2872 2875 2878 2881 2885 2888 2890 2893 2895 2898 2900 2904 2907 2911 2914 2918 2922 2927 2931 2934 2937 2941 2945 2949 2953 2955
2773 2771 2769 2767 2765 2764 2762 2760 2758 2757 2756 2756 2755 2755 2755 2755 2755 2755 2756 2757 2758 2759 2760 2760 2761 2762 2763 2764 2765 2767 2770 2773 2776 2779 2783 2787 2790 2794 2798 2802 2806 2809 2813 2818 2823 2826 2828 2829 2831 2834 2838 2841 2844 2848 2852 2855 2859 2862 2864 2868 2871 2874 2876 2879 2882 2884 2886 2889 2892 2894 2897 2900 2904 2907 2910 2914 2918 2922 2925 2929 2933 2936 2941 2945 2949 2953
2770 2768 2765 2764 2762 2760 2758 2756 2755 2753 2752 2751 2750 2750 2750 2750 2750 2750 2751 2751 2752 2753 2754 2755 2756 2757 2758 2759 2760 2762 2764 2767 2770 2774 2778 2781 2785 2789 2794 2798 2802 2806 2810 2814 2819 2823 2825 2825 2827 2831 2834 2838 2842 2845 2849 2852 2855 2859 2862 2865 2867 2869 2872 2876 2878 2880 2883 2886 2888 2890 2893 2896 2900 2903 2906 2910 2913 2917 2920 2924 2928 2931 2935 2939 2943 2947
2767 2764 2762 2760 2759 2757 2755 2753 2751 2750 2748 2747 2746 2745 2745 2745 2745 2745 2745 2746 2747 2748 2749 2750 2751 2751 2752 2754 2755 2757 2759 2762 2766 2769 2773 2777 2781 2785 2789 2794 2799 2803 2807 2811 2816 2820 2822 2823 2825 2828 2832 2835 2839 2842 2845 2848 2851 2855 2858 2860 2863 2865 2869 2873 2875 2878 2880 2883 2885 2887 2889 2893 2897 2900 2903 2907 2910 2914 2918 2921 2924 2928 2930 2934 2936 2939
2765 2762 2759 2757 2755 2753 2751 2749 2748 2746 2745 2744 2742 2741 2741 2741 2741 2740 2741 2741 2742 2743 2744 2745 2746 2747 2748 2749 2750 2753 2755 2758 2761 2765 2769 2773 2778 2782 2786 2790 2795 2800 2804 2808 2812 2816 2818 2820 2822 2825 2829 2832 2836 2839 2842 2845 2849 2852 2854 2857 2860 2864 2868 2871 2873 2875 2878 2880 2882 2885 2887 2891 2894 2898 2900 2904 2908 2912 2916 2919 2922 2925 2928 2930 2933 2936
2762 2759 2757 2754 2752 2749 2747 2745 2744 2742 2741 2740 2739 2737 2737 2737 2737 2737 2736 2737 2737 2738 2740 2741 2742 2743 2744 2744 2746 2749 2752 2754 2758 2762 2766 2770 2774 2779 2782 2786 2791 2797 2802 2805 2809 2811 2814 2816 2819 2823 2826 2830 2833 2836 2839 2842 2845 2849 2851 2854 2858 2861 2865 2867 2869 2872 2874 2877 2879 2882 2885 2889 2893 2896 2898 2901 2905 2909 2913 2916 2919 2923 2925 2928 2931 2934
2759 2756 2754 2751 2749 2746 2744 2742 2740 2739 2737 2736 2734 2734 2733 2733 2733 2733 2733 2733 2733 2734 2736 2737 2739 2740 2741 2741 2743 2746 2749 2752 2755 2759 2763 2767 2771 2775 2779 2784 2788 2794 2799 2802 2804 2807 2810 2814 2817 2820 2824 2827 2830 2833 2835 2839 2842 2845 2848 2851 2854 2856 2858 2861 2865 2869 2872 2875 2878 2880 2884 2888 2891 2894 2897 2900 2903 2907 2910 2913 2917 2920 2923 2926 2929 2931
2756 2754 2751 2748 2745 2743 2741 2739 2737 2735 2734 2732 2731 2730 2730 2730 2730 2730 2729 2729 2729 2731 2732 2734 2736 2737 2737 2738 2740 2744 2747 2750 2753 2757 2760 2764 2768 2773 2777 2781 2785 2791 2796 2798 2801 2804 2808 2811 2814 2817 2821 2824 2827 2829 2832 2835 2839 2842 2845 2848 2852 2855 2858 2861 2864 2867 2870 2873 2875 2879 2883 2886 2889 2892 2894 2897 2900 2903 2907 2910 2913 2917 2920 2923 2925 2928
2754 2751 2748 2745 2743 2740 2738 2735 2734 2732 2730 2729 2728 2727 2727 2727 2727 2726 2726 2726 2727 2728 2729 2731 2733 2734 2734 2735 2739 2742 2745 2748 2751 2754 2758 2762 2766 2770 2774 2778 2782 2787 2793 2795 2799 2802 2805 2809 2812 2815 2819 2822 2824 2827 2829 2832 2835 2839 2842 2846 2849 2853 2856 2860 2862 2864 2867 2870 2873 2876 2880 2884 2886 2889 2891 2894 2897 2900 2904 2907 2910 2913 2917 2919 2922 2924
2753 2749 2746 2743 2740 2738 2735 2733 2730 2728 2727 2725 2724 2724 2724 2724 2724 2723 2723 2724 2724 2725 2727 2729 2730 2731 2731 2734 2737 2740 2743 2746 2749 2753 2756 2759 2764 2768 2772 2775 2779 2785 2789 2793 2797 2801 2804 2807 2810 2813 2816 2819 2822 2824 2827 2830 2833 2836 2839 2843 2846 2850 2853 2856 2859 2861 2864 2867 2870 2873 2877 2880 2883 2886 2888 2891 2894 2897 2901 2904 2908 2911 2914 2917 2919 2922
2751 2747 2744 2740 2737 2734 2732 2730 2728 2725 2724 2722 2721 2721 2721 2721 2721 2720 2720 2721 2722 2724 2725 2727 2728 2729 2730 2732 2735 2738 2741 2744 2748 2751 2754 2758 2761 2765 2769 2773 2778 2783 2787 2791 2795 2799 2802 2805 2808 2810 2813 2816 2819 2821 2824 2827 2830 2833 2836 2840 2844 2847 2850 2854 2857 2859 2862 2864 2867 2870 2873 2876 2878 2881 2884 2887 2891 2894 2897 2901 2904 2908 2911 2914 2917 2919
2749 2745 2741 2738 2735 2732 2729 2727 2725 2723 2721 2720 2719 2718 2718 2718 2718 2718 2718 2719 2720 2722 2723 2724 2726 2727 2729 2731 2734 2736 2739 2743 2746 2749 2752 2755 2759 2763 2767 2771 2776 2781 2786 2790 2794 2798 2800 2803 2805 2808 2810 2814 2816 2818 2821 2824 2828 2831 2834 2838 2841 2845 2849 2852 2855 2857 2859 2862 2864 2867 2870 2872 2875 2877 2881 2884 2887 2890 2894 2897 2901 2905 2908 2911 2914 2916
2748 2744 2740 2736 2733 2730 2727 2725 2723 2721 2719 2718 2716 2715 2715 2715 2715 2716 2717 2718 2719 2720 2721 2723 2724 2726 2728 2729 2732 2735 2738 2741 2744 2747 2750 2753 2757 2761 2765 2769 2774 2778 2783 2788 2792 2795 2797 2800 2803 2805 2809 2811 2814 2815 2818 2821 2825 2829 2833 2836 2839 2843 2847 2850 2852 2854 2856 2859 2862 2864 2867 2870 2873 2875 2878 2881 2884 2887 2891 2895 2899 2902 2905 2909 2911 2914
2745 2741 2738 2734 2731 2728 2725 2723 2721 2719 2717 2715 2714 2713 2713 2713 2713 2714 2715 2716 2717 2718 2719 2721 2723 2724 2726 2728 2731 2733 2735 2739 2741 2744 2747 2751 2754 2759 2763 2767 2771 2775 2779 2784 2787 2790 2793 2796 2800 2804 2806 2809 2810 2813 2815 2818 2821 2826 2830 2833 2837 2840 2844 2847 2849 2851 2854 2856 2859 2862 2865 2867 2870 2872 2874 2877 2881 2885 2889 2893 2896 2899 2903 2906 2909 2912